{"data":{"norad_id":65630,"intl_designator":"2025-210J","name":"STARLINK-34877","alt_names":[],"object_type":"PAYLOAD","status":"ACTIVE","operator":null,"country":"US","launch_date":"2025-09-18","launch_site_code":"AFETR","launch_vehicle":null,"mission":null,"orbit_class":"UNKNOWN","rcs_meters":null,"size_class":null,"mass_kg":null,"dimensions":null,"purposes":["comms"],"wikipedia_slug":null,"has_3d_model":false,"image_url":null,"decayed_at":null,"tle_current":{"epoch":"2026-05-25T04:22:22.004832Z","epoch_age_seconds":59630,"freshness":"FRESH","line1":"1 65630U 25210J   26145.18219913  .00023778  00000+0  71245-3 0  9990","line2":"2 65630  53.1606 310.9889 0001116  77.5014 282.6114 15.34408509 39458","mean_motion":15.34408509,"eccentricity":0.0001116,"inclination_deg":53.1606,"raan_deg":310.9889,"arg_perigee_deg":77.5014,"mean_anomaly_deg":282.6114,"bstar":0.00071245,"rev_number":3945,"period_min":93.847237652408,"perigee_km":461.91451483439,"apogee_km":463.44138473118,"semimajor_km":6840.8149497828,"source":"CELESTRAK","updated_at":"2026-05-25T13:38:20.881726Z"}}}